Location: ?????? ??????
(44.3742°N, 135.2221°E)
Time: 01:44:06
(UTC+00:00)

Cosmos 1805 - Pass Details

Date: 19 May 2025
Orbit: 448 x 453 km, 82.5° (Epoch: 14 June)

Event Time Altitude Azimuth Distance (km) Brightness Sun altitude
Rises 12:57:11 0° 355° (N) 2,464 7.8 -20.3°
Reaches altitude 10° 12:59:18 10° 359° (N) 1,586 6.5 -20.4°
Enters shadow 13:02:28 55° 60° (ENE) 544 3.2 -20.7°
